sat.trackr.live / text

‹ back to catalog

STARLINK-33547

NORAD 62283 · 2024-237S

PAYLOAD ACTIVE UNKNOWN

§ Identity

Operator
Country
US
Launch date
2024-12-08
Launch site
AFETR
Launch vehicle
Mass (kg)
RCS (m²)

Purposes: comms

External: N2YO · Heavens-Above · Gunter

§ Orbital elements

Epoch: 2026-09-21T03:59:38.554944Z

Period
94.27 min
Inclination
43.0048°
Eccentricity
0.0001708
Mean motion
15.27605217 rev/d
Perigee alt
481.8 km
Apogee alt
484.1 km
Semi-major
6,861.1 km
B*
4.7388e-4
RAAN
181.5013°
Arg perigee
262.7217°
Mean anomaly
97.3441°
Rev number
10,121

§ Raw data

STARLINK-335471 62283U 24237S   26264.16641846  .00012810  00000+0  47388-3 0  99992 62283  43.0048 181.5013 0001708 262.7217  97.3441 15.27605217101213

JSON: /api/v1/satellites/62283 · /tle

For live sub-satellite position, see the globe view (requires WebGL).

§ Visibility from observer

Set your observer location to see the next 7 days of passes ≥ 10°. The values pass through the URL so the page stays shareable.

No JS? Fill the form by hand. The geolocation button needs JavaScript.